Time,TemperatureF,DewpointF,PressureIn,WindDirection,WindDirectionDegrees,WindSpeedMPH,WindSpeedGustMPH,Humidity,HourlyPrecipIn,Conditions,Clouds,dailyrainin,SoftwareType,DateUTC
2013-07-20 00:00:00,68.7,55.6,29.93,WNW,290,0.0,0.0,63,0.00,,SKC,0.00,VWS V14.01,2013-07-20 05:00:00,
2013-07-20 00:05:00,68.9,55.8,29.93,WNW,290,0.0,0.0,63,0.00,,SKC,0.00,VWS V14.01,2013-07-20 05:05:00,
2013-07-20 00:10:00,69.1,56.0,29.93,West,263,0.0,0.0,63,0.00,,SKC,0.00,VWS V14.01,2013-07-20 05:10:00,
2013-07-20 00:15:00,69.1,55.5,29.93,West,263,0.0,0.0,62,0.00,,SKC,0.00,VWS V14.01,2013-07-20 05:15:00,
2013-07-20 00:21:00,68.9,55.4,29.93,West,263,0.0,0.0,62,0.00,,SKC,0.00,VWS V14.01,2013-07-20 05:21:00,
2013-07-20 00:26:00,68.7,55.2,29.93,West,276,0.0,0.0,62,0.00,,SKC,0.00,VWS V14.01,2013-07-20 05:26:00,
2013-07-20 00:31:00,68.4,54.8,29.93,NW,307,0.0,0.0,62,0.00,,SKC,0.00,VWS V14.01,2013-07-20 05:31:00,
2013-07-20 00:36:00,68.2,55.5,29.96,WNW,287,0.0,0.0,64,0.00,,SKC,0.00,VWS V14.01,2013-07-20 05:36:00,
2013-07-20 00:41:00,68.2,55.5,29.96,WNW,287,0.0,0.0,64,0.00,,SKC,0.00,VWS V14.01,2013-07-20 05:41:00,
2013-07-20 00:46:00,68.2,55.5,29.96,WNW,287,0.0,0.0,64,0.00,,SKC,0.00,VWS V14.01,2013-07-20 05:46:00,
2013-07-20 00:51:00,68.2,55.5,29.96,WNW,287,0.0,0.0,64,0.00,,SKC,0.00,VWS V14.01,2013-07-20 05:51:00,
2013-07-20 00:56:00,68.2,56.0,29.96,West,260,0.0,0.0,65,0.00,,SKC,0.00,VWS V14.01,2013-07-20 05:56:00,
2013-07-20 01:01:00,68.2,55.5,29.96,WSW,257,0.0,0.0,64,0.00,,SKC,0.00,VWS V14.01,2013-07-20 06:01:00,
2013-07-20 01:06:00,68.4,55.7,29.96,WSW,257,0.0,0.0,64,0.00,,SKC,0.00,VWS V14.01,2013-07-20 06:06:00,
2013-07-20 01:11:00,68.2,55.5,29.96,WSW,257,0.0,0.0,64,0.00,,SKC,0.00,VWS V14.01,2013-07-20 06:11:00,
2013-07-20 01:17:00,67.8,55.6,29.96,West,259,0.0,0.0,65,0.00,,SKC,0.00,VWS V14.01,2013-07-20 06:17:00,
2013-07-20 01:22:00,67.5,54.9,29.96,WNW,296,0.0,0.0,64,0.00,,SKC,0.00,VWS V14.01,2013-07-20 06:22:00,
2013-07-20 01:27:00,67.5,56.1,29.96,NNW,336,0.0,0.0,67,0.00,,SKC,0.00,VWS V14.01,2013-07-20 06:27:00,
2013-07-20 01:32:00,67.3,56.0,29.96,WSW,255,0.0,0.0,67,0.00,,SKC,0.00,VWS V14.01,2013-07-20 06:32:00,
2013-07-20 01:37:00,67.3,56.0,29.96,WSW,255,0.0,0.0,67,0.00,,SKC,0.00,VWS V14.01,2013-07-20 06:37:00,
2013-07-20 01:42:00,66.9,55.6,29.96,WSW,255,0.0,0.0,67,0.00,,SKC,0.00,VWS V14.01,2013-07-20 06:42:00,
2013-07-20 01:47:00,66.7,55.5,29.96,WSW,255,0.0,0.0,67,0.00,,SKC,0.00,VWS V14.01,2013-07-20 06:47:00,
2013-07-20 01:52:00,66.6,55.7,29.96,WSW,255,0.0,0.0,68,0.00,,SKC,0.00,VWS V14.01,2013-07-20 06:52:00,
2013-07-20 01:57:00,66.4,55.5,29.96,WSW,255,0.0,0.0,68,0.00,,SKC,0.00,VWS V14.01,2013-07-20 06:57:00,
2013-07-20 02:03:00,66.4,55.9,29.96,WSW,255,0.0,0.0,69,0.00,,SKC,0.00,VWS V14.01,2013-07-20 07:03:00,
2013-07-20 02:08:00,66.4,55.9,29.96,WSW,255,0.0,0.0,69,0.00,,SKC,0.00,VWS V14.01,2013-07-20 07:08:00,
2013-07-20 02:13:00,66.0,55.6,29.96,WSW,249,0.0,0.0,69,0.00,,SKC,0.00,VWS V14.01,2013-07-20 07:13:00,
2013-07-20 02:18:00,65.8,55.8,29.96,WSW,249,0.0,0.0,70,0.00,,SKC,0.00,VWS V14.01,2013-07-20 07:18:00,
2013-07-20 02:23:00,65.7,55.6,29.93,WSW,248,0.0,0.0,70,0.00,,SKC,0.00,VWS V14.01,2013-07-20 07:23:00,
2013-07-20 02:28:00,65.7,56.0,29.93,WSW,248,0.0,0.0,71,0.00,,SKC,0.00,VWS V14.01,2013-07-20 07:28:00,
2013-07-20 02:33:00,65.7,56.4,29.93,WSW,248,0.0,0.0,72,0.00,,SKC,0.00,VWS V14.01,2013-07-20 07:33:00,
2013-07-20 02:39:00,65.5,56.2,29.93,WSW,244,0.0,0.0,72,0.00,,SKC,0.00,VWS V14.01,2013-07-20 07:39:00,
2013-07-20 02:44:00,65.5,56.2,29.93,WSW,244,0.0,0.0,72,0.00,,SKC,0.00,VWS V14.01,2013-07-20 07:44:00,
2013-07-20 02:49:00,65.1,55.9,29.93,WSW,244,0.0,0.0,72,0.00,,SKC,0.00,VWS V14.01,2013-07-20 07:49:00,
2013-07-20 02:54:00,64.9,55.7,29.93,WSW,244,0.0,0.0,72,0.00,,SKC,0.00,VWS V14.01,2013-07-20 07:54:00,
2013-07-20 02:59:00,64.8,55.5,29.93,WSW,244,0.0,0.0,72,0.00,,SKC,0.00,VWS V14.01,2013-07-20 07:59:00,
2013-07-20 03:04:00,64.8,55.9,29.93,WSW,244,0.0,0.0,73,0.00,,SKC,0.00,VWS V14.01,2013-07-20 08:04:00,
2013-07-20 03:09:00,64.6,55.7,29.93,WSW,244,0.0,0.0,73,0.00,,SKC,0.00,VWS V14.01,2013-07-20 08:09:00,
2013-07-20 03:15:00,64.6,56.1,29.93,WSW,244,0.0,0.0,74,0.00,,SKC,0.00,VWS V14.01,2013-07-20 08:15:00,
2013-07-20 03:20:00,64.6,56.1,29.93,WSW,244,0.0,0.0,74,0.00,,SKC,0.00,VWS V14.01,2013-07-20 08:20:00,
2013-07-20 03:25:00,64.6,56.1,29.93,WSW,244,0.0,0.0,74,0.00,,SKC,0.00,VWS V14.01,2013-07-20 08:25:00,
2013-07-20 03:30:00,64.4,56.3,29.93,WSW,244,0.0,0.0,75,0.00,,SKC,0.00,VWS V14.01,2013-07-20 08:30:00,
2013-07-20 03:35:00,64.4,56.3,29.93,WSW,244,0.0,0.0,75,0.00,,SKC,0.00,VWS V14.01,2013-07-20 08:35:00,
2013-07-20 03:40:00,64.6,56.8,29.93,WSW,244,0.0,0.0,76,0.00,,SKC,0.00,VWS V14.01,2013-07-20 08:40:00,
2013-07-20 03:45:00,64.4,56.3,29.93,WSW,244,0.0,0.0,75,0.00,,SKC,0.00,VWS V14.01,2013-07-20 08:45:00,
2013-07-20 03:50:00,64.4,56.7,29.93,WSW,244,0.0,0.0,76,0.00,,SKC,0.00,VWS V14.01,2013-07-20 08:50:00,
2013-07-20 03:56:00,64.4,56.3,29.93,WSW,244,0.0,0.0,75,0.00,,SKC,0.00,VWS V14.01,2013-07-20 08:56:00,
2013-07-20 04:01:00,64.0,56.3,29.93,WSW,244,0.0,0.0,76,0.00,,SKC,0.00,VWS V14.01,2013-07-20 09:01:00,
2013-07-20 04:06:00,63.9,56.5,29.93,WSW,244,0.0,0.0,77,0.00,,SKC,0.00,VWS V14.01,2013-07-20 09:06:00,
2013-07-20 04:11:00,63.7,56.3,29.93,WSW,244,0.0,0.0,77,0.00,,SKC,0.00,VWS V14.01,2013-07-20 09:11:00,
2013-07-20 04:16:00,63.7,56.3,29.93,WSW,244,0.0,0.0,77,0.00,,SKC,0.00,VWS V14.01,2013-07-20 09:16:00,
2013-07-20 04:21:00,63.9,56.9,29.93,WSW,244,0.0,0.0,78,0.00,,SKC,0.00,VWS V14.01,2013-07-20 09:21:00,
2013-07-20 04:26:00,63.9,56.9,29.93,WSW,244,0.0,0.0,78,0.00,,SKC,0.00,VWS V14.01,2013-07-20 09:26:00,
2013-07-20 04:31:00,63.9,57.2,29.93,WSW,244,0.0,0.0,79,0.00,,SKC,0.00,VWS V14.01,2013-07-20 09:31:00,
2013-07-20 04:36:00,63.7,57.0,29.93,WSW,244,0.0,0.0,79,0.00,,SKC,0.00,VWS V14.01,2013-07-20 09:36:00,
2013-07-20 04:41:00,63.7,57.0,29.93,WSW,244,0.0,0.0,79,0.00,,SKC,0.00,VWS V14.01,2013-07-20 09:41:00,
2013-07-20 04:46:00,63.7,57.0,29.93,WSW,244,0.0,0.0,79,0.00,,SKC,0.00,VWS V14.01,2013-07-20 09:46:00,
2013-07-20 04:52:00,63.5,56.9,29.93,WSW,244,0.0,0.0,79,0.00,,SKC,0.00,VWS V14.01,2013-07-20 09:52:00,
2013-07-20 04:57:00,63.5,56.9,29.93,WSW,244,0.0,0.0,79,0.00,,SKC,0.00,VWS V14.01,2013-07-20 09:57:00,
2013-07-20 05:02:00,63.5,56.9,29.93,WSW,244,0.0,0.0,79,0.00,,SKC,0.00,VWS V14.01,2013-07-20 10:02:00,
2013-07-20 05:07:00,63.5,56.9,29.93,WSW,244,0.0,0.0,79,0.00,,SKC,0.00,VWS V14.01,2013-07-20 10:07:00,
2013-07-20 05:12:00,63.5,57.2,29.93,WSW,244,0.0,0.0,80,0.00,,SKC,0.00,VWS V14.01,2013-07-20 10:12:00,
2013-07-20 05:17:00,63.5,57.2,29.93,WSW,244,0.0,0.0,80,0.00,,SKC,0.00,VWS V14.01,2013-07-20 10:17:00,
2013-07-20 05:22:00,63.5,57.2,29.93,WSW,244,0.0,0.0,80,0.00,,SKC,0.00,VWS V14.01,2013-07-20 10:22:00,
2013-07-20 05:27:00,63.3,57.0,29.93,WSW,244,0.0,0.0,80,0.00,,SKC,0.00,VWS V14.01,2013-07-20 10:27:00,
2013-07-20 05:32:00,63.1,56.9,29.93,WSW,244,0.0,0.0,80,0.00,,SKC,0.00,VWS V14.01,2013-07-20 10:32:00,
2013-07-20 05:37:00,63.1,56.9,29.93,WSW,244,0.0,0.0,80,0.00,,SKC,0.00,VWS V14.01,2013-07-20 10:37:00,
2013-07-20 05:42:00,63.1,56.9,29.93,WSW,244,0.0,0.0,80,0.00,,SKC,0.00,VWS V14.01,2013-07-20 10:42:00,
2013-07-20 05:48:00,63.0,56.7,29.93,WSW,245,0.0,0.0,80,0.00,,SKC,0.00,VWS V14.01,2013-07-20 10:48:00,
2013-07-20 05:53:00,63.0,56.7,29.93,WSW,245,0.0,0.0,80,0.00,,SKC,0.00,VWS V14.01,2013-07-20 10:53:00,
2013-07-20 05:58:00,62.8,56.5,29.93,WSW,245,0.0,0.0,80,0.00,,SKC,0.00,VWS V14.01,2013-07-20 10:58:00,
2013-07-20 06:03:00,63.0,57.0,29.93,WSW,245,0.0,0.0,81,0.00,,SKC,0.00,VWS V14.01,2013-07-20 11:03:00,
2013-07-20 06:08:00,62.8,56.9,29.93,WSW,245,0.0,0.0,81,0.00,,SKC,0.00,VWS V14.01,2013-07-20 11:08:00,
2013-07-20 06:13:00,62.8,56.9,29.93,WSW,245,0.0,0.0,81,0.00,,SKC,0.00,VWS V14.01,2013-07-20 11:13:00,
2013-07-20 06:18:00,62.8,56.9,29.93,WSW,245,0.0,0.0,81,0.00,,SKC,0.00,VWS V14.01,2013-07-20 11:18:00,
2013-07-20 06:23:00,62.6,56.7,29.93,WSW,245,0.0,0.0,81,0.00,,SKC,0.00,VWS V14.01,2013-07-20 11:23:00,
2013-07-20 06:28:00,62.6,56.7,29.93,WSW,245,0.0,0.0,81,0.00,,SKC,0.00,VWS V14.01,2013-07-20 11:28:00,
2013-07-20 06:33:00,62.8,57.2,29.93,WSW,245,0.0,0.0,82,0.00,,SKC,0.00,VWS V14.01,2013-07-20 11:33:00,
2013-07-20 06:38:00,63.0,57.4,29.93,WSW,245,0.0,0.0,82,0.00,,SKC,0.00,VWS V14.01,2013-07-20 11:38:00,
2013-07-20 06:43:00,63.1,57.6,29.93,WSW,245,0.0,0.0,82,0.00,,SKC,0.00,VWS V14.01,2013-07-20 11:43:00,
2013-07-20 06:48:00,63.3,57.7,29.93,WSW,245,0.0,0.0,82,0.00,,SKC,0.00,VWS V14.01,2013-07-20 11:48:00,
2013-07-20 06:54:00,63.5,57.9,29.96,WSW,245,0.0,0.0,82,0.00,,SKC,0.00,VWS V14.01,2013-07-20 11:54:00,
2013-07-20 06:59:00,63.9,58.3,29.96,WSW,245,0.0,0.0,82,0.00,,SKC,0.00,VWS V14.01,2013-07-20 11:59:00,
2013-07-20 07:04:00,64.0,58.4,29.96,WSW,245,0.0,0.0,82,0.00,,SKC,0.00,VWS V14.01,2013-07-20 12:04:00,
2013-07-20 07:09:00,64.4,58.5,29.96,WSW,245,0.0,0.0,81,0.00,,SKC,0.00,VWS V14.01,2013-07-20 12:09:00,
2013-07-20 07:14:00,64.9,59.0,29.96,WSW,245,0.0,0.0,81,0.00,,SKC,0.00,VWS V14.01,2013-07-20 12:14:00,
2013-07-20 07:19:00,65.3,59.0,29.96,WSW,245,0.0,0.0,80,0.00,,SKC,0.00,VWS V14.01,2013-07-20 12:19:00,
2013-07-20 07:24:00,65.7,59.3,29.96,WSW,245,0.0,0.0,80,0.00,,SKC,0.00,VWS V14.01,2013-07-20 12:24:00,
2013-07-20 07:29:00,66.0,59.7,29.96,WSW,245,0.0,0.0,80,0.00,,SKC,0.00,VWS V14.01,2013-07-20 12:29:00,
2013-07-20 07:34:00,66.6,59.8,29.96,WSW,245,0.0,0.0,79,0.00,,SKC,0.00,VWS V14.01,2013-07-20 12:34:00,
2013-07-20 07:39:00,67.3,59.1,29.96,WSW,245,0.0,0.0,75,0.00,,SKC,0.00,VWS V14.01,2013-07-20 12:39:00,
2013-07-20 07:44:00,68.0,57.9,29.96,WSW,254,0.0,0.0,70,0.00,,SKC,0.00,VWS V14.01,2013-07-20 12:44:00,
2013-07-20 07:49:00,68.5,58.0,29.96,WSW,252,0.0,0.0,69,0.00,,SKC,0.00,VWS V14.01,2013-07-20 12:49:00,
2013-07-20 07:54:00,69.1,58.1,29.96,West,259,0.0,0.0,68,0.00,,SKC,0.00,VWS V14.01,2013-07-20 12:54:00,
2013-07-20 07:59:00,69.6,57.8,29.96,WSW,247,0.0,0.0,66,0.00,,SKC,0.00,VWS V14.01,2013-07-20 12:59:00,
2013-07-20 08:04:00,70.2,57.0,29.96,WSW,247,0.0,0.0,63,0.00,,SKC,0.00,VWS V14.01,2013-07-20 13:04:00,
2013-07-20 08:09:00,70.9,56.3,29.96,NNW,334,0.0,0.0,60,0.00,,SKC,0.00,VWS V14.01,2013-07-20 13:09:00,
2013-07-20 08:15:00,71.2,56.2,29.96,NNW,334,0.0,0.0,59,0.00,,SKC,0.00,VWS V14.01,2013-07-20 13:15:00,
2013-07-20 08:20:00,72.0,56.4,29.96,WSW,247,4.8,4.8,58,0.00,,SKC,0.00,VWS V14.01,2013-07-20 13:20:00,
2013-07-20 08:25:00,77.5,56.3,29.96,WSW,247,4.8,4.8,48,0.00,,SKC,0.00,VWS V14.01,2013-07-20 13:25:00,
2013-07-20 08:30:00,81.9,55.2,29.96,NW,306,5.6,5.6,40,0.00,,SKC,0.00,VWS V14.01,2013-07-20 13:30:00,
2013-07-20 08:35:00,82.4,53.5,29.96,NW,306,5.6,5.6,37,0.00,,SKC,0.00,VWS V14.01,2013-07-20 13:35:00,
2013-07-20 08:40:00,79.0,53.3,29.96,NW,306,5.6,5.6,41,0.00,,SKC,0.00,VWS V14.01,2013-07-20 13:40:00,
2013-07-20 08:45:00,76.8,53.9,29.96,WNW,285,0.0,0.0,45,0.00,,SKC,0.00,VWS V14.01,2013-07-20 13:45:00,
2013-07-20 08:50:00,76.3,53.4,29.96,WNW,285,0.0,0.0,45,0.00,,SKC,0.00,VWS V14.01,2013-07-20 13:50:00,
2013-07-20 08:55:00,76.3,54.0,29.96,WNW,285,0.0,0.0,46,0.00,,SKC,0.00,VWS V14.01,2013-07-20 13:55:00,
2013-07-20 09:00:00,76.8,53.9,29.96,WNW,293,6.4,7.2,45,0.00,,SKC,0.00,VWS V14.01,2013-07-20 14:00:00,
2013-07-20 09:05:00,77.2,53.0,29.96,WNW,293,6.4,6.4,43,0.00,,SKC,0.00,VWS V14.01,2013-07-20 14:05:00,
2013-07-20 09:10:00,77.0,52.8,29.96,WNW,293,6.4,6.4,43,0.00,,SKC,0.00,VWS V14.01,2013-07-20 14:10:00,
2013-07-20 09:15:00,77.2,54.2,29.96,WNW,293,6.4,6.4,45,0.00,,SKC,0.00,VWS V14.01,2013-07-20 14:15:00,
2013-07-20 09:20:00,77.9,54.3,29.96,WNW,293,6.4,6.4,44,0.00,,SKC,0.00,VWS V14.01,2013-07-20 14:20:00,
2013-07-20 09:25:00,77.7,53.5,29.99,WNW,293,6.4,6.4,43,0.00,,SKC,0.00,VWS V14.01,2013-07-20 14:25:00,
2013-07-20 09:30:00,77.9,54.3,29.99,WNW,293,6.4,6.4,44,0.00,,SKC,0.00,VWS V14.01,2013-07-20 14:30:00,
2013-07-20 09:35:00,78.3,54.6,29.99,WNW,293,6.4,6.4,44,0.00,,SKC,0.00,VWS V14.01,2013-07-20 14:35:00,
2013-07-20 09:40:00,79.2,54.8,29.99,West,259,0.0,0.0,43,0.00,,SKC,0.00,VWS V14.01,2013-07-20 14:40:00,
2013-07-20 09:45:00,80.2,54.4,29.99,West,259,0.0,0.0,41,0.00,,SKC,0.00,VWS V14.01,2013-07-20 14:45:00,
2013-07-20 09:50:00,79.5,53.8,29.96,West,259,0.0,0.0,41,0.00,,SKC,0.00,VWS V14.01,2013-07-20 14:50:00,
2013-07-20 09:55:00,79.3,53.6,29.96,West,259,0.0,0.0,41,0.00,,SKC,0.00,VWS V14.01,2013-07-20 14:55:00,
2013-07-20 10:01:00,79.7,54.6,29.96,West,259,0.0,0.0,42,0.00,,SKC,0.00,VWS V14.01,2013-07-20 15:01:00,
2013-07-20 10:06:00,79.9,54.1,29.99,West,259,0.0,0.0,41,0.00,,SKC,0.00,VWS V14.01,2013-07-20 15:06:00,
2013-07-20 10:11:00,80.2,54.4,29.99,West,259,0.0,0.0,41,0.00,,SKC,0.00,VWS V14.01,2013-07-20 15:11:00,
2013-07-20 10:16:00,81.0,54.4,29.99,West,259,0.0,0.0,40,0.00,,SKC,0.00,VWS V14.01,2013-07-20 15:16:00,
2013-07-20 10:21:00,80.8,54.2,29.99,West,259,0.0,0.0,40,0.00,,SKC,0.00,VWS V14.01,2013-07-20 15:21:00,
2013-07-20 10:26:00,81.1,54.5,29.99,West,259,0.0,0.0,40,0.00,,SKC,0.00,VWS V14.01,2013-07-20 15:26:00,
2013-07-20 10:31:00,81.7,53.6,29.99,West,259,0.0,0.0,38,0.00,,SKC,0.00,VWS V14.01,2013-07-20 15:31:00,
2013-07-20 10:36:00,82.0,54.7,29.96,West,259,0.0,0.0,39,0.00,,SKC,0.00,VWS V14.01,2013-07-20 15:36:00,
2013-07-20 10:41:00,82.8,54.6,29.96,West,259,0.0,0.0,38,0.00,,SKC,0.00,VWS V14.01,2013-07-20 15:41:00,
2013-07-20 10:46:00,82.9,54.8,29.96,West,259,0.0,0.0,38,0.00,,SKC,0.00,VWS V14.01,2013-07-20 15:46:00,
2013-07-20 10:51:00,83.1,54.2,29.96,West,259,0.0,0.0,37,0.00,,SKC,0.00,VWS V14.01,2013-07-20 15:51:00,
2013-07-20 10:56:00,84.0,55.7,29.96,West,259,0.0,0.0,38,0.00,,SKC,0.00,VWS V14.01,2013-07-20 15:56:00,
2013-07-20 11:01:00,84.2,54.4,29.96,West,259,0.0,0.0,36,0.00,,SKC,0.00,VWS V14.01,2013-07-20 16:01:00,
2013-07-20 11:06:00,83.1,54.2,29.96,West,259,0.0,0.0,37,0.00,,SKC,0.00,VWS V14.01,2013-07-20 16:06:00,
2013-07-20 11:11:00,82.8,53.9,29.96,West,259,0.0,0.0,37,0.00,,SKC,0.00,VWS V14.01,2013-07-20 16:11:00,
2013-07-20 11:16:00,83.7,53.9,29.96,West,259,0.0,0.0,36,0.00,,SKC,0.00,VWS V14.01,2013-07-20 16:16:00,
2013-07-20 11:21:00,84.0,53.5,29.96,West,259,0.0,0.0,35,0.00,,SKC,0.00,VWS V14.01,2013-07-20 16:21:00,
2013-07-20 11:26:00,85.1,55.2,29.96,West,259,0.0,0.0,36,0.00,,SKC,0.00,VWS V14.01,2013-07-20 16:26:00,
2013-07-20 11:31:00,85.3,52.1,29.96,West,259,0.0,0.0,32,0.00,,SKC,0.00,VWS V14.01,2013-07-20 16:31:00,
2013-07-20 11:36:00,84.0,51.8,29.96,West,259,0.0,0.0,33,0.00,,SKC,0.00,VWS V14.01,2013-07-20 16:36:00,
2013-07-20 11:41:00,82.8,51.6,29.96,West,259,0.0,0.0,34,0.00,,SKC,0.00,VWS V14.01,2013-07-20 16:41:00,
2013-07-20 11:46:00,81.9,52.3,29.96,West,259,0.0,0.0,36,0.00,,SKC,0.00,VWS V14.01,2013-07-20 16:46:00,
2013-07-20 11:51:00,81.9,52.3,29.96,West,259,0.0,0.0,36,0.00,,SKC,0.00,VWS V14.01,2013-07-20 16:51:00,
2013-07-20 11:56:00,81.5,53.5,29.96,West,259,0.0,0.0,38,0.00,,SKC,0.00,VWS V14.01,2013-07-20 16:56:00,
2013-07-20 12:01:00,80.6,53.4,29.96,West,259,0.0,0.0,39,0.00,,SKC,0.00,VWS V14.01,2013-07-20 17:01:00,
2013-07-20 12:06:00,81.1,54.5,29.96,West,259,0.0,0.0,40,0.00,,SKC,0.00,VWS V14.01,2013-07-20 17:06:00,
2013-07-20 12:12:00,81.3,54.0,29.96,West,259,0.0,0.0,39,0.00,,SKC,0.00,VWS V14.01,2013-07-20 17:12:00,
2013-07-20 12:17:00,80.6,54.1,29.96,West,259,0.0,0.0,40,0.00,,SKC,0.00,VWS V14.01,2013-07-20 17:17:00,
2013-07-20 12:22:00,80.2,53.8,29.96,West,259,0.0,0.0,40,0.00,,SKC,0.00,VWS V14.01,2013-07-20 17:22:00,
2013-07-20 12:27:00,79.7,53.9,29.96,West,259,0.0,0.0,41,0.00,,SKC,0.00,VWS V14.01,2013-07-20 17:27:00,
2013-07-20 12:32:00,80.2,55.7,29.96,West,259,0.0,0.0,43,0.00,,SKC,0.00,VWS V14.01,2013-07-20 17:32:00,
2013-07-20 12:37:00,81.3,54.7,29.96,West,259,0.0,0.0,40,0.00,,SKC,0.00,VWS V14.01,2013-07-20 17:37:00,
2013-07-20 12:42:00,81.3,54.0,29.96,West,259,0.0,0.0,39,0.00,,SKC,0.00,VWS V14.01,2013-07-20 17:42:00,
2013-07-20 12:47:00,81.5,54.9,29.96,West,259,0.0,0.0,40,0.00,,SKC,0.00,VWS V14.01,2013-07-20 17:47:00,
2013-07-20 12:52:00,82.8,55.3,29.96,West,259,0.0,0.0,39,0.00,,SKC,0.00,VWS V14.01,2013-07-20 17:52:00,
2013-07-20 12:57:00,84.4,54.5,29.96,WSW,239,0.0,0.0,36,0.00,,SKC,0.00,VWS V14.01,2013-07-20 17:57:00,
2013-07-20 13:02:00,84.6,53.9,29.96,SW,227,5.6,5.6,35,0.00,,SKC,0.00,VWS V14.01,2013-07-20 18:02:00,
2013-07-20 13:07:00,84.6,53.9,29.96,SW,227,5.6,5.6,35,0.00,,SKC,0.00,VWS V14.01,2013-07-20 18:07:00,
2013-07-20 13:12:00,84.2,52.8,29.96,SW,227,5.6,5.6,34,0.00,,SKC,0.00,VWS V14.01,2013-07-20 18:12:00,
2013-07-20 13:17:00,84.0,52.7,29.96,SW,227,5.6,5.6,34,0.00,,SKC,0.00,VWS V14.01,2013-07-20 18:17:00,
2013-07-20 13:22:00,84.0,53.5,29.96,SW,227,5.6,5.6,35,0.00,,SKC,0.00,VWS V14.01,2013-07-20 18:22:00,
2013-07-20 13:27:00,83.8,53.3,29.96,SW,227,5.6,5.6,35,0.00,,SKC,0.00,VWS V14.01,2013-07-20 18:27:00,
2013-07-20 13:32:00,83.7,53.1,29.96,SW,227,5.6,5.6,35,0.00,,SKC,0.00,VWS V14.01,2013-07-20 18:32:00,
2013-07-20 13:37:00,85.3,53.0,29.96,SW,227,5.6,5.6,33,0.00,,SKC,0.00,VWS V14.01,2013-07-20 18:37:00,
2013-07-20 13:42:00,86.4,52.2,29.96,SW,227,5.6,5.6,31,0.00,,SKC,0.00,VWS V14.01,2013-07-20 18:42:00,
2013-07-20 13:47:00,86.2,51.1,29.96,SW,227,5.6,5.6,30,0.00,,SKC,0.00,VWS V14.01,2013-07-20 18:47:00,
2013-07-20 13:52:00,86.7,52.5,29.96,SW,227,5.6,5.6,31,0.00,,SKC,0.00,VWS V14.01,2013-07-20 18:52:00,
2013-07-20 13:58:00,86.2,51.1,29.96,SW,227,5.6,5.6,30,0.00,,SKC,0.00,VWS V14.01,2013-07-20 18:58:00,
2013-07-20 14:05:00,85.8,51.7,29.96,SW,227,5.6,5.6,31,0.00,,SKC,0.00,VWS V14.01,2013-07-20 19:05:00,
2013-07-20 14:10:00,86.9,51.8,29.96,SW,227,5.6,5.6,30,0.00,,SKC,0.00,VWS V14.01,2013-07-20 19:10:00,
2013-07-20 14:15:00,87.3,52.1,29.96,SW,227,5.6,5.6,30,0.00,,SKC,0.00,VWS V14.01,2013-07-20 19:15:00,
2013-07-20 14:21:00,87.1,51.9,29.96,SW,227,5.6,5.6,30,0.00,,SKC,0.00,VWS V14.01,2013-07-20 19:21:00,
2013-07-20 14:26:00,87.1,51.0,29.96,SW,227,5.6,5.6,29,0.00,,SKC,0.00,VWS V14.01,2013-07-20 19:26:00,
2013-07-20 14:31:00,86.9,52.7,29.96,SW,227,5.6,5.6,31,0.00,,SKC,0.00,VWS V14.01,2013-07-20 19:31:00,
2013-07-20 14:36:00,87.6,51.5,29.96,SW,227,5.6,5.6,29,0.00,,SKC,0.00,VWS V14.01,2013-07-20 19:36:00,
2013-07-20 14:42:00,87.6,51.5,29.96,SW,227,5.6,5.6,29,0.00,,SKC,0.00,VWS V14.01,2013-07-20 19:42:00,
2013-07-20 14:47:00,86.9,50.8,29.96,SW,227,5.6,5.6,29,0.00,,SKC,0.00,VWS V14.01,2013-07-20 19:47:00,
2013-07-20 14:53:00,86.7,50.7,29.93,SW,227,5.6,5.6,29,0.00,,SKC,0.00,VWS V14.01,2013-07-20 19:53:00,
2013-07-20 14:59:00,86.5,50.5,29.93,SW,227,5.6,5.6,29,0.00,,SKC,0.00,VWS V14.01,2013-07-20 19:59:00,
2013-07-20 15:05:00,86.9,51.8,29.96,SW,227,5.6,5.6,30,0.00,,SKC,0.00,VWS V14.01,2013-07-20 20:05:00,
2013-07-20 15:10:00,86.4,51.3,29.96,SW,227,5.6,5.6,30,0.00,,SKC,0.00,VWS V14.01,2013-07-20 20:10:00,
2013-07-20 15:15:00,85.8,50.8,29.96,SW,227,5.6,5.6,30,0.00,,SKC,0.00,VWS V14.01,2013-07-20 20:15:00,
2013-07-20 15:21:00,86.4,51.3,29.93,SW,227,5.6,5.6,30,0.00,,SKC,0.00,VWS V14.01,2013-07-20 20:21:00,
2013-07-20 15:26:00,86.7,51.6,29.93,SW,227,5.6,5.6,30,0.00,,SKC,0.00,VWS V14.01,2013-07-20 20:26:00,
2013-07-20 15:32:00,86.5,51.5,29.93,SW,227,5.6,5.6,30,0.00,,SKC,0.00,VWS V14.01,2013-07-20 20:32:00,
2013-07-20 15:38:00,86.9,51.8,29.96,SW,227,5.6,5.6,30,0.00,,SKC,0.00,VWS V14.01,2013-07-20 20:38:00,
2013-07-20 15:43:00,86.2,51.1,29.96,SW,227,5.6,5.6,30,0.00,,SKC,0.00,VWS V14.01,2013-07-20 20:43:00,
2013-07-20 15:48:00,85.6,51.6,29.96,SW,227,5.6,5.6,31,0.00,,SKC,0.00,VWS V14.01,2013-07-20 20:48:00,
2013-07-20 15:54:00,85.5,51.4,29.96,SW,227,5.6,5.6,31,0.00,,SKC,0.00,VWS V14.01,2013-07-20 20:54:00,
2013-07-20 15:59:00,84.4,50.5,29.96,SW,227,5.6,5.6,31,0.00,,SKC,0.00,VWS V14.01,2013-07-20 20:59:00,
2013-07-20 16:04:00,85.6,51.6,29.96,SW,227,5.6,5.6,31,0.00,,SKC,0.00,VWS V14.01,2013-07-20 21:04:00,
2013-07-20 16:10:00,87.3,53.0,29.96,SW,227,5.6,5.6,31,0.00,,SKC,0.00,VWS V14.01,2013-07-20 21:10:00,
2013-07-20 16:16:00,87.4,52.2,29.96,SW,227,5.6,5.6,30,0.00,,SKC,0.00,VWS V14.01,2013-07-20 21:16:00,
2013-07-20 16:21:00,87.3,51.2,29.93,SW,227,5.6,5.6,29,0.00,,SKC,0.00,VWS V14.01,2013-07-20 21:21:00,
2013-07-20 16:26:00,87.1,51.9,29.93,SW,227,5.6,5.6,30,0.00,,SKC,0.00,VWS V14.01,2013-07-20 21:26:00,
2013-07-20 16:32:00,87.1,51.0,29.93,SW,227,5.6,5.6,29,0.00,,SKC,0.00,VWS V14.01,2013-07-20 21:32:00,
2013-07-20 16:37:00,86.9,50.8,29.93,SW,227,5.6,5.6,29,0.00,,SKC,0.00,VWS V14.01,2013-07-20 21:37:00,
2013-07-20 16:42:00,86.7,50.7,29.93,SW,227,5.6,5.6,29,0.00,,SKC,0.00,VWS V14.01,2013-07-20 21:42:00,
2013-07-20 16:48:00,86.7,50.7,29.93,SW,227,5.6,5.6,29,0.00,,SKC,0.00,VWS V14.01,2013-07-20 21:48:00,
2013-07-20 16:53:00,86.0,51.0,29.93,SW,227,5.6,5.6,30,0.00,,SKC,0.00,VWS V14.01,2013-07-20 21:53:00,
2013-07-20 16:59:00,85.3,50.4,29.93,SW,227,5.6,5.6,30,0.00,,SKC,0.00,VWS V14.01,2013-07-20 21:59:00,
2013-07-20 17:04:00,85.5,51.4,29.93,SW,227,5.6,5.6,31,0.00,,SKC,0.00,VWS V14.01,2013-07-20 22:04:00,
2013-07-20 17:10:00,85.6,50.7,29.93,SW,227,5.6,5.6,30,0.00,,SKC,0.00,VWS V14.01,2013-07-20 22:10:00,
2013-07-20 17:15:00,86.7,50.7,29.93,SW,227,5.6,5.6,29,0.00,,SKC,0.00,VWS V14.01,2013-07-20 22:15:00,
2013-07-20 17:20:00,87.1,51.0,29.93,SW,227,5.6,5.6,29,0.00,,SKC,0.00,VWS V14.01,2013-07-20 22:20:00,
2013-07-20 17:25:00,86.9,50.8,29.93,SW,227,5.6,5.6,29,0.00,,SKC,0.00,VWS V14.01,2013-07-20 22:25:00,
2013-07-20 17:31:00,86.0,50.1,29.93,SW,227,5.6,5.6,29,0.00,,SKC,0.00,VWS V14.01,2013-07-20 22:31:00,
2013-07-20 17:36:00,85.8,49.9,29.91,SW,227,5.6,5.6,29,0.00,,SKC,0.00,VWS V14.01,2013-07-20 22:36:00,
2013-07-20 17:41:00,85.8,49.9,29.91,SW,227,5.6,5.6,29,0.00,,SKC,0.00,VWS V14.01,2013-07-20 22:41:00,
2013-07-20 17:46:00,86.0,50.1,29.91,SW,227,5.6,5.6,29,0.00,,SKC,0.00,VWS V14.01,2013-07-20 22:46:00,
2013-07-20 17:52:00,87.8,50.7,29.91,SW,227,5.6,5.6,28,0.00,,SKC,0.00,VWS V14.01,2013-07-20 22:52:00,
2013-07-20 17:57:00,90.9,50.2,29.91,SW,227,5.6,5.6,25,0.00,,SKC,0.00,VWS V14.01,2013-07-20 22:57:00,
2013-07-20 18:03:00,90.5,49.9,29.91,SW,227,5.6,5.6,25,0.00,,SKC,0.00,VWS V14.01,2013-07-20 23:03:00,
2013-07-20 18:08:00,87.4,50.4,29.91,SW,227,5.6,5.6,28,0.00,,SKC,0.00,VWS V14.01,2013-07-20 23:08:00,
2013-07-20 18:14:00,85.3,49.5,29.91,SW,227,5.6,5.6,29,0.00,,SKC,0.00,VWS V14.01,2013-07-20 23:14:00,
2013-07-20 18:20:00,83.7,49.8,29.91,WSW,255,0.0,0.0,31,0.00,,SKC,0.00,VWS V14.01,2013-07-20 23:20:00,
2013-07-20 18:25:00,83.7,49.8,29.91,WSW,255,0.0,0.0,31,0.00,,SKC,0.00,VWS V14.01,2013-07-20 23:25:00,
2013-07-20 18:31:00,83.7,49.8,29.91,SW,229,6.4,6.4,31,0.00,,SKC,0.00,VWS V14.01,2013-07-20 23:31:00,
2013-07-20 18:36:00,83.5,49.7,29.91,WSW,253,0.0,0.0,31,0.00,,SKC,0.00,VWS V14.01,2013-07-20 23:36:00,
2013-07-20 18:41:00,83.1,49.4,29.91,West,263,0.0,0.0,31,0.00,,SKC,0.00,VWS V14.01,2013-07-20 23:41:00,
2013-07-20 18:47:00,82.8,49.1,29.91,WNW,282,4.8,4.8,31,0.00,,SKC,0.00,VWS V14.01,2013-07-20 23:47:00,
2013-07-20 18:52:00,82.6,49.8,29.91,WSW,250,0.0,0.0,32,0.00,,SKC,0.00,VWS V14.01,2013-07-20 23:52:00,
2013-07-20 18:58:00,82.0,50.1,29.91,WSW,258,4.8,4.8,33,0.00,,SKC,0.00,VWS V14.01,2013-07-20 23:58:00,
2013-07-20 19:03:00,81.9,50.8,29.91,West,268,0.0,0.0,34,0.00,,SKC,0.00,VWS V14.01,2013-07-21 00:03:00,
2013-07-20 19:09:00,81.7,50.6,29.91,West,274,0.0,0.0,34,0.00,,SKC,0.00,VWS V14.01,2013-07-21 00:09:00,
2013-07-20 19:15:00,81.5,50.5,29.91,WSW,253,0.0,0.0,34,0.00,,SKC,0.00,VWS V14.01,2013-07-21 00:15:00,
2013-07-20 19:20:00,81.3,49.5,29.91,SW,230,0.0,0.0,33,0.00,,SKC,0.00,VWS V14.01,2013-07-21 00:20:00,
2013-07-20 19:25:00,80.8,49.8,29.91,WSW,252,0.0,0.0,34,0.00,,SKC,0.00,VWS V14.01,2013-07-21 00:25:00,
2013-07-20 19:31:00,80.2,50.1,29.91,WSW,252,0.0,0.0,35,0.00,,SKC,0.00,VWS V14.01,2013-07-21 00:31:00,
2013-07-20 19:36:00,79.9,51.3,29.91,WSW,252,0.0,0.0,37,0.00,,SKC,0.00,VWS V14.01,2013-07-21 00:36:00,
2013-07-20 19:41:00,79.7,51.9,29.91,WSW,252,0.0,0.0,38,0.00,,SKC,0.00,VWS V14.01,2013-07-21 00:41:00,
2013-07-20 19:47:00,79.5,51.7,29.91,WSW,252,0.0,0.0,38,0.00,,SKC,0.00,VWS V14.01,2013-07-21 00:47:00,
2013-07-20 19:52:00,79.3,52.3,29.91,WSW,252,0.0,0.0,39,0.00,,SKC,0.00,VWS V14.01,2013-07-21 00:52:00,
2013-07-20 19:58:00,78.8,51.8,29.91,WSW,239,0.0,0.0,39,0.00,,SKC,0.00,VWS V14.01,2013-07-21 00:58:00,
2013-07-20 20:04:00,78.4,51.5,29.91,WSW,239,0.0,0.0,39,0.00,,SKC,0.00,VWS V14.01,2013-07-21 01:04:00,
2013-07-20 20:09:00,78.1,51.1,29.93,WSW,239,0.0,0.0,39,0.00,,SKC,0.00,VWS V14.01,2013-07-21 01:09:00,
2013-07-20 20:15:00,77.5,51.3,29.93,WSW,239,0.0,0.0,40,0.00,,SKC,0.00,VWS V14.01,2013-07-21 01:15:00,
2013-07-20 20:20:00,77.2,51.7,29.93,WSW,239,0.0,0.0,41,0.00,,SKC,0.00,VWS V14.01,2013-07-21 01:20:00,
2013-07-20 20:26:00,76.6,52.5,29.93,WSW,239,0.0,0.0,43,0.00,,SKC,0.00,VWS V14.01,2013-07-21 01:26:00,
2013-07-20 20:32:00,76.5,52.3,29.93,WSW,241,0.0,0.0,43,0.00,,SKC,0.00,VWS V14.01,2013-07-21 01:32:00,
2013-07-20 20:37:00,76.1,53.2,29.93,WSW,241,0.0,0.0,45,0.00,,SKC,0.00,VWS V14.01,2013-07-21 01:37:00,
2013-07-20 20:42:00,75.7,52.3,29.93,WSW,241,0.0,0.0,44,0.00,,SKC,0.00,VWS V14.01,2013-07-21 01:42:00,
2013-07-20 20:47:00,75.4,52.6,29.93,WSW,241,0.0,0.0,45,0.00,,SKC,0.00,VWS V14.01,2013-07-21 01:47:00,
2013-07-20 20:53:00,75.0,53.4,29.93,WSW,241,0.0,0.0,47,0.00,,SKC,0.00,VWS V14.01,2013-07-21 01:53:00,
2013-07-20 20:58:00,74.7,53.1,29.93,WSW,241,0.0,0.0,47,0.00,,SKC,0.00,VWS V14.01,2013-07-21 01:58:00,
2013-07-20 21:04:00,74.3,52.8,29.93,WSW,241,0.0,0.0,47,0.00,,SKC,0.00,VWS V14.01,2013-07-21 02:04:00,
2013-07-20 21:09:00,73.9,53.6,29.93,WSW,241,0.0,0.0,49,0.00,,SKC,0.00,VWS V14.01,2013-07-21 02:09:00,
2013-07-20 21:15:00,73.6,53.8,29.93,WSW,241,0.0,0.0,50,0.00,,SKC,0.00,VWS V14.01,2013-07-21 02:15:00,
2013-07-20 21:21:00,73.4,54.2,29.93,WSW,241,0.0,0.0,51,0.00,,SKC,0.00,VWS V14.01,2013-07-21 02:21:00,
2013-07-20 21:26:00,73.2,55.6,29.93,WSW,241,0.0,0.0,54,0.00,,SKC,0.00,VWS V14.01,2013-07-21 02:26:00,
2013-07-20 21:30:00,73.0,56.4,29.93,WSW,241,0.0,0.0,56,0.00,,SKC,0.00,VWS V14.01,2013-07-21 02:30:00,
2013-07-20 21:35:00,72.7,56.1,29.93,WSW,241,0.0,0.0,56,0.00,,SKC,0.00,VWS V14.01,2013-07-21 02:35:00,
2013-07-20 21:40:00,72.5,56.9,29.93,WSW,241,0.0,0.0,58,0.00,,SKC,0.00,VWS V14.01,2013-07-21 02:40:00,
2013-07-20 21:45:00,72.3,57.2,29.93,WSW,241,0.0,0.0,59,0.00,,SKC,0.00,VWS V14.01,2013-07-21 02:45:00,
2013-07-20 21:50:00,72.0,57.3,29.93,WSW,241,0.0,0.0,60,0.00,,SKC,0.00,VWS V14.01,2013-07-21 02:50:00,
2013-07-20 21:55:00,71.6,57.5,29.93,WSW,241,0.0,0.0,61,0.00,,SKC,0.00,VWS V14.01,2013-07-21 02:55:00,
2013-07-20 22:04:00,71.2,58.0,29.93,WSW,241,0.0,0.0,63,0.00,,SKC,0.00,VWS V14.01,2013-07-21 03:04:00,
2013-07-20 22:10:00,71.1,58.3,29.93,WSW,241,0.0,0.0,64,0.00,,SKC,0.00,VWS V14.01,2013-07-21 03:10:00,
2013-07-20 22:15:00,70.9,57.7,29.93,WSW,241,0.0,0.0,63,0.00,,SKC,0.00,VWS V14.01,2013-07-21 03:15:00,
2013-07-20 22:20:00,70.9,58.1,29.96,WSW,241,0.0,0.0,64,0.00,,SKC,0.00,VWS V14.01,2013-07-21 03:20:00,
2013-07-20 22:25:00,70.7,57.5,29.96,WSW,241,0.0,0.0,63,0.00,,SKC,0.00,VWS V14.01,2013-07-21 03:25:00,
2013-07-20 22:31:00,70.5,57.8,29.96,WSW,241,0.0,0.0,64,0.00,,SKC,0.00,VWS V14.01,2013-07-21 03:31:00,
2013-07-20 22:36:00,70.5,57.8,29.96,WSW,241,0.0,0.0,64,0.00,,SKC,0.00,VWS V14.01,2013-07-21 03:36:00,
2013-07-20 22:42:00,70.3,58.0,29.96,WSW,241,0.0,0.0,65,0.00,,SKC,0.00,VWS V14.01,2013-07-21 03:42:00,
2013-07-20 22:48:00,70.3,58.0,29.96,WSW,241,0.0,0.0,65,0.00,,SKC,0.00,VWS V14.01,2013-07-21 03:48:00,
2013-07-20 22:53:00,70.3,58.0,29.96,WSW,240,0.0,0.0,65,0.00,,SKC,0.00,VWS V14.01,2013-07-21 03:53:00,
2013-07-20 22:58:00,70.2,57.9,29.96,WSW,240,0.0,0.0,65,0.00,,SKC,0.00,VWS V14.01,2013-07-21 03:58:00,
2013-07-20 23:01:00,70.2,57.9,29.96,WSW,240,0.0,0.0,65,0.00,,SKC,0.00,VWS V14.01,2013-07-21 04:01:00,
2013-07-20 23:02:00,70.2,57.9,29.96,WSW,240,0.0,0.0,65,0.00,,SKC,0.00,VWS V14.01,2013-07-21 04:02:00,
2013-07-20 23:04:00,70.2,57.9,29.96,WSW,240,0.0,0.0,65,0.00,,SKC,0.00,VWS V14.01,2013-07-21 04:04:00,
2013-07-20 23:09:00,70.0,57.7,29.96,WSW,240,0.0,0.0,65,0.00,,SKC,0.00,VWS V14.01,2013-07-21 04:09:00,
2013-07-20 23:14:00,69.6,57.3,29.96,WSW,240,0.0,0.0,65,0.00,,SKC,0.00,VWS V14.01,2013-07-21 04:14:00,
2013-07-20 23:16:00,69.6,57.3,29.96,WSW,240,0.0,0.0,65,0.00,,SKC,0.00,VWS V14.01,2013-07-21 04:16:00,
2013-07-20 23:21:00,69.4,57.6,29.96,WSW,240,0.0,0.0,66,0.00,,SKC,0.00,VWS V14.01,2013-07-21 04:21:00,
2013-07-20 23:26:00,69.4,57.2,29.96,WSW,240,0.0,0.0,65,0.00,,SKC,0.00,VWS V14.01,2013-07-21 04:26:00,
2013-07-20 23:32:00,69.3,57.8,29.96,WSW,240,0.0,0.0,67,0.00,,SKC,0.00,VWS V14.01,2013-07-21 04:32:00,
2013-07-20 23:37:00,69.3,57.8,29.96,WSW,240,0.0,0.0,67,0.00,,SKC,0.00,VWS V14.01,2013-07-21 04:37:00,
2013-07-20 23:42:00,68.9,57.9,29.96,WSW,240,0.0,0.0,68,0.00,,SKC,0.00,VWS V14.01,2013-07-21 04:42:00,
2013-07-20 23:47:00,68.5,57.6,29.96,WSW,240,0.0,0.0,68,0.00,,SKC,0.00,VWS V14.01,2013-07-21 04:47:00,
2013-07-20 23:52:00,68.4,57.8,29.96,WSW,240,0.0,0.0,69,0.00,,SKC,0.00,VWS V14.01,2013-07-21 04:52:00,
2013-07-20 23:57:00,68.2,57.6,29.96,WSW,240,0.0,0.0,69,0.00,,SKC,0.00,VWS V14.01,2013-07-21 04:57:00,